Other Surface Observations
Issued by NWS Upton, NY

Current Version | Previous Version | Text Only | Print | Product List | Glossary On
Versions: 1 2 3 4 5 6 7 8 9 10 11 12 13 14 15 16 17 18 19 20 21 22 23 24 25 26 27 28 29 30 31 32 33 34 35 36 37 38 39 40 41 42 43 44 45 46 47 48 49 50
641
SXUS51 KOKX 251357
OSOOKX
New York City Metropolitan Area Weather Roundup
National Weather Service New York NY
1000 AM EDT WED APR 25 2018

CITY           SKY/WX    TMP DP  RH WIND       PRES   REMARKS
Central Park   CLOUDY    57  55  93 VRB6G20   29.91F
LaGuardia Arpt LGT RAIN  60  55  83 SE15G28   29.87F
Kennedy Intl   DRIZZLE   55  55 100 E21G30    29.89F
Newark Liberty CLOUDY    56  55  97 E9G20     29.87F
Teterboro Arpt CLOUDY    57  55  93 E5        29.88F
Bronx Bot Gard   N/A     54  52  94 E5        29.90F
Bronx Lehman C   N/A     54  54 100 E7          N/A
Queens College   N/A     55  55 100 SE14        N/A
Breezy Point     N/A     50 N/A N/A E14G20      N/A
Brooklyn Coll    N/A     54  54 100 E14G25      N/A
Staten Island    N/A     52  52 100 SE14G29     N/A

>>>>>>>>>>>>>>>>>>>>>>>>>>>>>>>>> KEY <<<<<<<<<<<<<<<<<<<<<<<<<<<<<<<
> SKY/WX - Sky Condition/Present    : R : WCI - Wind Chill Index    <
>          Weather                  : E : VSB - Visibility in Miles <
> TMP    - Temperature in Deg F     : M : HX  - Heat Index          <
> DP     - Dew Point Temperature    : A : TC  - Temperature in      <
> RH     - Relative Humidity        : R :       Celsius             <
> WIND   - Direction/Speed (mph)    : K : VRB - Variable Wind Dir   <
> PRES   - Pressure (in Hg)         : S :                           <
>>>>>>>>>>>>>>>>>>>>>>>>>>>>>>>>> KEY <<<<<<<<<<<<<<<<<<<<<<<<<<<<<<<




USA.gov is the U.S. government's official web portal to all federal, state and local government web resources and services.